Weather History for South Bend, IN

Change the Weather History Date:

Wednesday, February 6, 2013

  Actual Average Record
Temperature  
Mean Temperature 26 °F 26 °F  
Max Temperature 34 °F 33 °F 56 °F (1938)
Min Temperature 17 °F 19 °F -11 °F (1978)
Degree Days  
Heating Degree Days 39 39  
Month to date heating degree days 275 239  
Since 1 July heating degree days 3623 3887  
Cooling Degree Days 0 0  
Month to date cooling degree days 0 0  
Year to date cooling degree days 0 0  
Moisture  
Dew Point 19 °F    
Average Humidity 68    
Maximum Humidity 84    
Minimum Humidity 51    
Precipitation  
Precipitation 0.00 in 0.06 in 0.85 in (1943)
Month to date precipitation 0.60 0.37  
Year to date precipitation 5.60 2.66  
Snow  
Snow 0.00 in - - ()
Month to date snowfall 10.7  
Snow Depth 11.00 in    
Sea Level Pressure  
Sea Level Pressure 30.20 in    
Wind  
Wind Speed 6 mph (SSW)    
Max Wind Speed 14 mph    
Max Gust Speed 16 mph    
Visibility 10 miles    
Events      
T = Trace of Precipitation, MM = Missing Value Source: NWS Daily Summary

Daily Weather History Graph

Daily Weather History Graph

Search for Another Location

Airport:

Trip Planner

Search our weather history database for the weather conditions in past years. The results will help you decide how hot, cold, wet, or windy it might be!

Date:

Astronomy

Feb. 06, 2013 Rise Set
Actual Time 7:51 AM EST 6:07 PM EST
Civil Twilight 7:22 AM EST 6:36 PM EST
Nautical Twilight 6:49 AM EST 7:09 PM EST
Astronomical Twilight 6:17 AM EST 7:42 PM EST
Moon 4:36 AM EST (2/6) 2:23 PM EST (2/6)
Length of Visible Light 11h 14m
Length of Day
10h 15m
Waning Crescent, 17% of the Moon is Illuminated
Feb 6
Waning Crescent
Feb 10
New
Feb 17
First Quarter
Feb 25
Full
Mar 4
Last Quarter

Hourly Weather History & Observations

Time (EST) Temp. Windchill Dew Point Humidity Pressure Visibility Wind Dir Wind Speed Gust Speed Precip Events Conditions
12:54 AM 30.0 °F 22.4 °F 21.0 °F 69% 30.06 in 10.0 mi NNW 8.1 mph - N/A   Overcast
1:54 AM 28.9 °F 19.8 °F 21.0 °F 72% 30.09 in 10.0 mi NNW 10.4 mph - N/A   Overcast
2:30 AM 28.4 °F 19.7 °F 19.4 °F 69% 30.09 in 10.0 mi NNW 9.2 mph - N/A   Overcast
2:54 AM 28.4 °F 21.2 °F 19.4 °F 69% 30.10 in 10.0 mi North 6.9 mph - N/A   Overcast
3:54 AM 27.0 °F 20.5 °F 19.9 °F 75% 30.14 in 10.0 mi North 5.8 mph - N/A   Overcast
4:16 AM 26.6 °F 22.6 °F 19.4 °F 74% 30.12 in 10.0 mi NNW 3.5 mph - N/A   Overcast
4:54 AM 26.1 °F - 19.9 °F 78% 30.15 in 10.0 mi Calm Calm - N/A   Overcast
5:04 AM 24.8 °F - 19.4 °F 80% 30.12 in 10.0 mi Calm Calm - N/A   Overcast
5:54 AM 24.1 °F 18.2 °F 18.0 °F 77% 30.19 in 10.0 mi West 4.6 mph - N/A   Overcast
6:54 AM 25.0 °F 20.7 °F 16.0 °F 69% 30.22 in 10.0 mi West 3.5 mph - N/A   Overcast
7:54 AM 21.9 °F 17.2 °F 16.0 °F 78% 30.24 in 10.0 mi SW 3.5 mph - N/A   Overcast
8:54 AM 19.0 °F - 16.0 °F 88% 30.25 in 6.0 mi Calm Calm - N/A   Clear
9:54 AM 24.1 °F - 18.0 °F 77% 30.26 in 9.0 mi Calm Calm - N/A   Clear
10:54 AM 28.9 °F - 17.1 °F 61% 30.27 in 10.0 mi Calm Calm - N/A   Clear
11:54 AM 30.0 °F 21.7 °F 18.0 °F 61% 30.28 in 10.0 mi South 9.2 mph - 0.00 in   Clear
12:54 PM 30.9 °F 24.3 °F 18.0 °F 59% 30.27 in 10.0 mi South 6.9 mph - N/A   Clear
1:54 PM 32.0 °F 26.4 °F 18.0 °F 56% 30.25 in 10.0 mi South 5.8 mph - N/A   Clear
2:54 PM 33.1 °F 26.1 °F 18.0 °F 54% 30.25 in 10.0 mi SSW 8.1 mph - N/A   Clear
3:54 PM 33.1 °F 25.5 °F 19.9 °F 59% 30.25 in 10.0 mi SSW 9.2 mph - N/A   Clear
4:54 PM 33.1 °F 26.1 °F 19.0 °F 56% 30.23 in 10.0 mi South 8.1 mph - N/A   Clear
5:54 PM 32.0 °F 24.2 °F 19.9 °F 61% 30.25 in 10.0 mi SSE 9.2 mph - N/A   Partly Cloudy
6:54 PM 30.9 °F 24.3 °F 21.0 °F 67% 30.25 in 10.0 mi SE 6.9 mph - N/A   Scattered Clouds
7:54 PM 30.9 °F 26.2 °F 21.0 °F 67% 30.25 in 8.0 mi SE 4.6 mph - N/A   Clear
8:54 PM 30.9 °F 22.2 °F 21.9 °F 69% 30.21 in 8.0 mi SE 10.4 mph - N/A   Overcast
9:54 PM 30.0 °F 20.5 °F 21.9 °F 72% 30.21 in 8.0 mi SE 11.5 mph - N/A   Clear
10:54 PM 30.0 °F 21.1 °F 21.9 °F 72% 30.20 in 8.0 mi SE 10.4 mph - N/A   Clear
11:54 PM 30.0 °F 20.5 °F 23.0 °F 75% 30.19 in 8.0 mi SE 11.5 mph - N/A   Partly Cloudy